CZ-6A DEB, 60763

Orbit data source: Space-Track

CZ-6A DEB, 60763 is space debris in LEO originally from a launch on Tue, 06 Aug 2024 UTC launched from the Taiyaun Space Center, China (TSC). Debris objects in space refer to the collection of defunct objects orbiting the Earth. Examples of debris include non-operational satellites, rocket bodies, and fragments generated from explosions, collisions, or faulty payload assembly.

Loading next visibility...
Identifier
60763, 2024-140EN
Orbit
LEO
Country
Flag of CNCN / PRC
Related business
Manufacturer
SAST
Mission
Spacecraft
Bus & Motor
Unknown
Mass
Unknown
Launch date (UTC)
2024-08-06 (2 years ago)
Launch vehicle
Unknown
Launch site
Taiyaun Space Center, China (TSC)
Object type
Payload
Rocket body
Debris
Shape & HBR
Unknown shape, 0.1 m
Radar Cross Section
Small (<0.1 m²)

Expand to show TLE details & history
Last TLE update: 15 hours ago

TLE from 15 hours ago
0 CZ-6A DEB
1 60763U 24140EN  26171.23118704  .00003178  00000-0  56747-3 0  9997
2 60763  89.0242 271.3001 0104954 225.4114 133.8501 14.63168162 98214
Epoch: 2026-06-20T05:32Z
TLE epoch observation values (Epoch: 2026-06-20T05:32:54.560Z)
Latitude
-0.00002°
Longitude
-80.37601°
Altitude
737.83 km
Speed
7.458 km/s
True Right ascension
18h 05m 12s
True Declination
0° 00' 00"
Sunlit
Object was in full shadow at epoch
Visualization orbit readout
Latitude
Unknown
Longitude
Unknown
Altitude
Unknown
Speed
Unknown
Apparent Right ascension
Unknown
Apparent Declination
Unknown
Sunlit
N/A
Visualization observer readout
Local Sidereal Time
07:24:07
Azimuth
Unknown
Elevation
Unknown
Doppler factor
Unknown
Orbital elements
Apogee altitude
753.928 km
Perigee altitude
605.775 km
Semi-major axis
7,057.989 km
Eccentricity
0.0105
Inclination
89.0242°
RAAN
271.3001°
Arg. of periapsis
225.4114°
True anomaly
134.70957°
Mean anomaly
133.8501°
Eccentric anomaly
134.28062°
Mean motion
3.66034 °/min
Orbital period
98.35 mins
BSTAR
0.00056747
Loading maneuver chart data...
Computing Atmospheric mass density...
Loading historical data...
Loading historical data...
Loading historical data...
Loading historical data...
Loading historical data...
Loading historical data...
Loading historical data...

Documentation

Showing up to 5 results
|